�N����,����,�~����,�C��,���x,�C��,����,���ϕ���,�ő�u�ԕ���,�ő厞����,���˗�,�I�_���x,�n�����x,�ő啗���N��,DTYPE
"19/05/26","00:10",0.0,19.1,65.9,1012.1,282.6,0.8,2.0,324.2,0.00,12.6,20.6,"00:07:20",1
"19/05/26","00:20",0.0,19.1,66.0,1012.3,295.1,1.0,1.4,308.4,0.00,12.6,20.3,"00:13:52",1
"19/05/26","00:30",0.0,19.1,65.9,1011.9,283.8,1.0,1.2,270.7,0.00,12.6,20.4,"00:26:08",1
"19/05/26","00:40",0.0,19.0,65.6,1012.6,287.5,1.0,1.3,293.3,0.00,12.5,20.1,"00:30:48",1
"19/05/26","00:50",0.0,18.8,65.8,1012.3,305.0,1.1,1.9,311.1,0.00,12.3,20.2,"00:41:04",1
"19/05/26","01:00",0.0,18.5,66.8,1011.9,306.3,0.6,1.4,320.2,0.00,12.3,19.9,"00:59:36",1
"19/05/26","01:10",0.0,18.3,68.6,1012.1,311.7,1.2,1.7,325.2,0.00,12.5,19.8,"01:04:56",1
"19/05/26","01:20",0.0,18.0,70.0,1011.9,316.0,1.3,1.7,323.6,0.00,12.5,19.9,"01:12:32",1
"19/05/26","01:30",0.0,17.7,71.2,1012.3,289.5,1.0,1.3,314.1,0.00,12.5,19.7,"01:20:24",1
"19/05/26","01:40",0.0,17.6,72.3,1012.3,297.8,1.0,1.4,305.7,0.00,12.6,19.8,"01:30:08",1
"19/05/26","01:50",0.0,17.7,73.2,1012.3,321.2,1.1,1.4,319.3,0.00,12.9,19.7,"01:48:16",1
"19/05/26","02:00",0.0,17.3,74.8,1012.1,302.3,1.2,1.8,320.8,0.00,12.8,19.8,"01:53:44",1
"19/05/26","02:10",0.0,17.5,75.1,1012.3,290.4,1.1,1.8,301.0,0.00,13.1,19.4,"02:05:28",1
"19/05/26","02:20",0.0,17.6,73.7,1012.3,293.6,1.3,2.0,322.3,0.00,12.9,19.5,"02:10:32",1
"19/05/26","02:30",0.0,17.6,74.0,1012.1,301.7,1.1,1.7,296.3,0.00,13.0,19.3,"02:20:08",1
"19/05/26","02:40",0.0,17.4,75.1,1012.1,312.0,1.1,1.9,315.8,0.00,13.0,19.2,"02:39:12",1
"19/05/26","02:50",0.0,17.0,77.1,1012.1,315.3,1.1,1.6,323.9,0.00,13.0,19.4,"02:42:48",1
"19/05/26","03:00",0.0,16.9,77.3,1012.1,305.6,1.1,1.8,325.9,0.00,12.9,19.4,"02:51:20",1
"19/05/26","03:10",0.0,16.8,77.9,1012.1,294.0,1.0,1.8,314.4,0.00,13.0,19.1,"03:06:32",1
"19/05/26","03:20",0.0,16.9,78.2,1012.1,295.3,1.2,1.9,319.2,0.00,13.1,19.1,"03:14:24",1
"19/05/26","03:30",0.0,17.1,78.6,1012.1,315.5,1.2,1.7,316.4,0.00,13.4,19.1,"03:22:08",1
"19/05/26","03:40",0.0,17.0,78.6,1012.3,298.6,1.0,1.3,308.8,0.00,13.3,19.0,"03:30:08",1
"19/05/26","03:50",0.0,17.1,78.2,1012.6,298.2,1.1,1.8,323.4,0.00,13.3,18.9,"03:40:24",1
"19/05/26","04:00",0.0,17.1,78.7,1012.3,320.9,1.0,1.4,318.7,0.00,13.4,19.0,"03:51:04",1
"19/05/26","04:10",0.0,16.8,79.1,1012.3,307.7,1.1,1.4,313.6,0.00,13.2,18.8,"04:03:52",1
"19/05/26","04:20",0.0,16.7,80.3,1012.1,315.0,1.1,1.3,325.9,0.00,13.3,18.9,"04:10:08",1
"19/05/26","04:30",0.0,16.7,80.7,1012.3,283.6,0.8,1.3,304.6,0.00,13.4,18.8,"04:20:16",1
"19/05/26","04:40",0.0,16.7,81.4,1012.3,303.5,1.0,1.4,314.5,0.00,13.5,18.9,"04:39:44",1
"19/05/26","04:50",0.0,16.7,82.3,1012.8,327.2,1.2,1.3,314.2,0.00,13.7,18.8,"04:40:24",1
"19/05/26","05:00",0.0,16.2,83.7,1012.3,294.3,0.8,1.2,317.6,0.00,13.5,18.7,"04:52:00",1
"19/05/26","05:10",0.0,16.0,84.1,1012.6,288.9,1.0,1.3,294.6,0.00,13.4,18.7,"05:00:40",1
"19/05/26","05:20",0.0,16.3,85.0,1012.6,323.3,1.1,1.3,321.1,0.00,13.8,18.3,"05:12:24",1
"19/05/26","05:30",0.0,16.4,85.6,1012.8,323.7,1.1,1.4,321.0,0.00,14.0,18.7,"05:24:08",1
"19/05/26","05:40",0.0,16.3,86.1,1012.8,314.2,1.1,1.4,318.0,0.00,14.0,18.6,"05:39:44",1
"19/05/26","05:50",0.0,16.1,86.5,1013.0,306.2,1.1,1.6,324.5,0.00,13.9,18.5,"05:40:48",1
"19/05/26","06:00",0.0,16.4,86.7,1013.0,316.0,1.1,1.4,313.4,0.00,14.2,18.4,"05:58:24",1
"19/05/26","06:10",0.0,16.4,87.1,1013.0,312.1,1.0,1.3,310.3,0.00,14.3,18.5,"06:00:48",1
"19/05/26","06:20",0.0,16.6,87.5,1013.0,323.3,1.3,1.6,321.6,0.02,14.6,18.4,"06:15:36",1
"19/05/26","06:30",0.0,17.1,87.5,1013.5,321.4,1.1,1.6,323.3,0.03,15.0,18.4,"06:20:08",1
"19/05/26","06:40",0.0,17.9,87.7,1013.3,313.2,1.0,1.2,314.5,0.04,15.9,18.6,"06:39:44",1
"19/05/26","06:50",0.0,18.5,85.0,1013.3,312.2,0.8,1.1,316.7,0.04,16.0,18.5,"06:43:28",1
"19/05/26","07:00",0.0,19.3,83.9,1013.8,306.7,0.7,1.1,325.6,0.06,16.6,18.7,"06:59:28",1
"19/05/26","07:10",0.0,19.8,81.5,1013.5,305.9,0.8,1.7,334.0,0.07,16.6,18.8,"07:05:12",1
"19/05/26","07:20",0.0,20.7,78.4,1013.5,324.3,0.6,1.0,337.6,0.08,16.8,18.9,"07:15:44",1
"19/05/26","07:30",0.0,21.2,72.5,1013.5,354.6,0.3,0.6,324.1,0.13,16.1,19.0,"07:23:44",1
"19/05/26","07:40",0.0,21.9,71.2,1013.3,303.8,0.2,0.6,99.4,0.15,16.5,19.1,"07:38:56",1
"19/05/26","07:50",0.0,22.5,68.9,1013.3,92.4,0.2,0.9,53.9,0.18,16.5,19.3,"07:49:20",1
"19/05/26","08:00",0.0,23.2,68.6,1013.3,102.8,0.2,1.0,89.2,0.21,17.1,19.3,"07:54:00",1
"19/05/26","08:10",0.0,23.5,67.9,1012.8,181.2,0.3,1.1,116.2,0.23,17.3,19.6,"08:06:40",1
"19/05/26","08:20",0.0,23.7,65.3,1012.8,155.4,0.5,1.2,129.3,0.25,16.8,19.7,"08:19:44",1
"19/05/26","08:30",0.0,24.1,65.4,1012.3,140.9,0.7,1.9,126.5,0.25,17.3,19.8,"08:21:36",1
"19/05/26","08:40",0.0,24.4,65.4,1012.6,154.2,1.0,2.6,203.9,0.31,17.5,20.2,"08:38:56",1
"19/05/26","08:50",0.0,24.7,64.4,1011.6,176.0,1.1,2.6,203.9,0.33,17.6,20.3,"08:43:04",1
"19/05/26","09:00",0.0,24.9,63.8,1011.9,169.4,1.2,2.7,204.4,0.35,17.6,20.5,"08:58:48",1
"19/05/26","09:10",0.0,25.2,63.1,1011.9,158.7,1.5,3.2,144.2,0.36,17.7,20.8,"09:03:36",1
"19/05/26","09:20",0.0,25.7,62.0,1012.3,197.5,1.0,1.9,225.5,0.40,17.9,20.9,"09:11:12",1
"19/05/26","09:30",0.0,25.5,61.3,1012.3,165.9,1.2,2.8,225.2,0.35,17.5,21.1,"09:26:24",1
"19/05/26","09:40",0.0,25.6,61.0,1012.3,124.7,1.0,2.2,197.2,0.25,17.6,21.3,"09:33:36",1
"19/05/26","09:50",0.0,26.0,59.1,1012.6,169.3,1.0,2.2,187.2,0.38,17.4,21.7,"09:47:20",1
"19/05/26","10:00",0.0,25.5,58.4,1012.3,192.4,1.3,2.2,204.4,0.21,16.8,21.5,"09:54:32",1
"19/05/26","10:10",0.0,26.9,57.4,1012.6,195.8,0.6,2.1,156.9,0.37,17.8,21.8,"10:08:48",1
"19/05/26","10:20",0.0,27.4,55.5,1013.0,206.6,0.7,3.1,217.7,0.49,17.7,22.1,"10:11:36",1
"19/05/26","10:30",0.0,27.6,54.9,1013.5,133.6,1.0,2.0,181.4,0.53,17.8,22.4,"10:26:24",1
"19/05/26","10:40",0.0,27.6,54.7,1013.5,189.4,1.7,2.9,161.9,0.47,17.7,22.6,"10:38:08",1
"19/05/26","10:50",0.0,27.8,54.2,1013.0,152.4,1.2,2.2,148.8,0.42,17.7,22.7,"10:40:24",1
"19/05/26","11:00",0.0,28.5,53.9,1013.5,131.7,0.8,2.4,103.6,0.55,18.3,23.0,"10:59:36",1
"19/05/26","11:10",0.0,28.6,52.6,1013.5,145.8,1.1,2.2,147.4,0.50,18.0,23.4,"11:04:08",1
"19/05/26","11:20",0.0,29.4,53.3,1014.0,162.1,1.2,2.7,184.1,0.53,19.0,23.6,"11:18:16",1
"19/05/26","11:30",0.0,29.0,53.3,1013.5,160.1,1.6,3.9,195.8,0.46,18.6,23.8,"11:22:16",1
"19/05/26","11:40",0.0,29.2,51.0,1013.5,169.3,1.8,3.3,209.0,0.52,18.1,24.2,"11:33:12",1
"19/05/26","11:50",0.0,29.0,53.0,1013.3,184.6,1.3,2.7,228.3,0.39,18.5,24.4,"11:47:36",1
"19/05/26","12:00",0.0,29.5,54.7,1013.3,169.4,1.5,3.3,206.3,0.41,19.5,24.6,"11:52:48",1
"19/05/26","12:10",0.0,29.3,54.4,1013.3,158.6,1.3,3.1,179.9,0.35,19.2,24.5,"12:06:32",1
"19/05/26","12:20",0.0,29.9,51.4,1013.0,178.5,1.6,3.7,229.4,0.49,18.8,24.9,"12:17:36",1
"19/05/26","12:30",0.0,29.8,51.7,1013.0,170.8,1.1,2.9,198.6,0.43,18.8,24.9,"12:23:36",1
"19/05/26","12:40",0.0,29.8,50.3,1013.0,230.1,0.8,1.9,222.1,0.38,18.4,25.0,"12:39:04",1
"19/05/26","12:50",0.0,30.2,49.6,1012.8,197.9,0.5,1.6,221.0,0.37,18.5,25.0,"12:40:02",1
"19/05/26","13:00",0.0,30.4,50.8,1012.6,9.5,0.6,1.6,6.4,0.37,19.1,25.4,"12:56:32",1
"19/05/26","13:10",0.0,30.7,49.8,1012.6,230.5,1.1,3.2,189.2,0.34,19.1,25.3,"13:04:24",1
"19/05/26","13:20",0.0,30.2,49.6,1012.1,141.0,1.1,2.5,135.0,0.39,18.5,25.4,"13:15:36",1
"19/05/26","13:30",0.0,30.4,48.9,1011.9,144.8,0.7,1.9,144.9,0.23,18.5,25.4,"13:21:44",1
"19/05/26","13:40",0.0,30.5,46.9,1011.9,141.4,1.5,2.6,145.4,0.36,17.9,25.6,"13:37:28",1
"19/05/26","13:50",0.0,30.5,48.0,1011.9,146.5,1.1,1.8,141.9,0.23,18.3,25.3,"13:40:40",1
"19/05/26","14:00",0.0,30.8,44.7,1011.6,188.0,0.7,1.9,178.2,0.24,17.4,25.4,"13:59:12",1
"19/05/26","14:10",0.0,30.6,46.4,1011.2,190.4,0.8,2.0,217.7,0.25,17.8,25.6,"14:00:08",1
"19/05/26","14:20",0.0,31.8,46.7,1011.6,174.0,1.0,2.4,161.0,0.42,19.0,25.7,"14:12:40",1
"19/05/26","14:30",0.0,31.7,43.6,1011.6,251.5,1.2,2.9,227.0,0.49,17.9,25.7,"14:20:24",1
"19/05/26","14:40",0.0,31.9,43.8,1011.6,266.3,1.0,3.3,343.7,0.52,18.1,26.0,"14:31:28",1
"19/05/26","14:50",0.0,32.1,40.9,1011.4,224.1,0.8,1.9,202.1,0.47,17.2,26.1,"14:41:12",1
"19/05/26","15:00",0.0,31.6,40.1,1011.6,207.7,1.1,2.6,225.7,0.39,16.4,26.2,"14:57:28",1
"19/05/26","15:10",0.0,31.4,44.1,1011.2,286.6,1.2,3.3,338.3,0.29,17.8,25.9,"15:09:12",1
"19/05/26","15:20",0.0,32.3,41.0,1010.9,9.1,1.1,2.5,9.4,0.38,17.4,26.2,"15:19:44",1
"19/05/26","15:30",0.0,31.9,38.2,1010.9,123.6,0.8,2.0,201.5,0.29,15.9,26.2,"15:29:36",1
"19/05/26","15:40",0.0,31.9,39.1,1010.7,210.9,1.6,3.9,212.1,0.33,16.3,26.3,"15:31:20",1
"19/05/26","15:50",0.0,31.7,41.1,1010.4,191.1,0.7,1.7,209.7,0.21,16.9,26.3,"15:45:36",1
"19/05/26","16:00",0.0,31.2,39.9,1010.2,255.4,0.6,1.8,226.0,0.16,16.0,26.2,"15:52:40",1
"19/05/26","16:10",0.0,30.9,44.4,1010.0,3.6,0.6,2.2,329.4,0.14,17.4,26.1,"16:09:28",1
"19/05/26","16:20",0.0,30.8,44.1,1009.7,319.5,1.6,3.7,349.9,0.16,17.2,26.0,"16:12:00",1
"19/05/26","16:30",0.0,31.5,41.8,1009.5,292.4,1.1,3.3,320.9,0.23,17.0,26.0,"16:25:12",1
"19/05/26","16:40",0.0,31.6,41.2,1009.7,260.6,1.2,2.6,321.9,0.26,16.9,25.7,"16:39:28",1
"19/05/26","16:50",0.0,31.7,45.5,1009.5,292.2,0.8,2.7,337.0,0.22,18.5,26.0,"16:40:08",1
"19/05/26","17:00",0.0,32.7,38.4,1009.3,312.8,0.5,1.3,331.0,0.23,16.7,25.9,"16:56:08",1
"19/05/26","17:10",0.0,32.6,38.9,1009.5,255.4,0.8,2.4,316.5,0.20,16.9,25.8,"17:03:52",1
"19/05/26","17:20",0.0,32.7,38.9,1009.5,209.2,0.3,1.3,227.9,0.17,16.9,25.8,"17:10:24",1
"19/05/26","17:30",0.0,32.8,34.4,1009.7,296.8,0.6,1.2,349.8,0.06,15.1,25.9,"17:22:32",1
"19/05/26","17:40",0.0,32.5,32.7,1009.5,235.5,0.5,1.9,225.1,0.03,14.1,25.7,"17:37:04",1
"19/05/26","17:50",0.0,32.1,34.9,1009.5,235.6,0.8,2.2,205.7,0.02,14.7,25.8,"17:40:02",1
"19/05/26","18:00",0.0,31.3,43.5,1009.0,186.5,1.3,2.4,212.2,0.02,17.5,25.4,"17:50:08",1
"19/05/26","18:10",0.0,30.6,45.5,1009.3,207.6,1.7,3.5,222.7,0.02,17.5,25.4,"18:05:36",1
"19/05/26","18:20",0.0,30.4,46.0,1009.0,207.7,1.1,2.5,210.6,0.02,17.5,25.3,"18:14:00",1
"19/05/26","18:30",0.0,29.9,45.1,1008.6,247.9,0.7,1.6,310.5,0.01,16.8,25.1,"18:23:12",1
"19/05/26","18:40",0.0,29.4,45.4,1008.6,326.7,1.0,2.0,338.9,0.01,16.4,25.1,"18:35:04",1
"19/05/26","18:50",0.0,29.1,47.3,1008.3,304.2,1.0,2.9,350.9,0.00,16.8,25.0,"18:42:08",1
"19/05/26","19:00",0.0,28.7,49.5,1007.8,322.4,1.3,2.9,332.3,0.00,17.1,24.9,"18:56:24",1
"19/05/26","19:10",0.0,28.3,53.9,1007.8,15.0,0.7,1.7,21.7,0.00,18.1,24.7,"19:01:36",1
"19/05/26","19:20",0.0,27.2,57.7,1008.1,342.9,1.2,2.1,341.4,0.00,18.2,24.6,"19:15:44",1
"19/05/26","19:30",0.0,26.5,60.3,1008.1,341.5,1.1,1.9,340.0,0.00,18.2,24.6,"19:29:36",1
"19/05/26","19:40",0.0,25.6,60.9,1008.6,338.5,1.5,2.2,336.7,0.00,17.5,24.3,"19:33:12",1
"19/05/26","19:50",0.0,25.5,60.0,1008.8,332.5,2.2,3.6,329.9,0.00,17.2,23.9,"19:45:12",1
"19/05/26","20:00",0.0,25.1,60.3,1008.8,324.8,1.6,2.7,347.9,0.00,16.9,23.9,"19:52:48",1
"19/05/26","20:10",0.0,24.7,62.6,1009.5,334.7,0.5,2.0,334.9,0.00,17.1,23.7,"20:01:52",1
"19/05/26","20:20",0.0,24.3,62.9,1009.3,296.5,0.5,0.9,337.0,0.00,16.8,23.6,"20:12:24",1
"19/05/26","20:30",0.0,23.9,63.7,1009.3,317.5,1.1,2.1,329.5,0.00,16.6,23.5,"20:28:56",1
"19/05/26","20:40",0.0,23.7,64.7,1009.5,320.7,1.1,2.2,316.6,0.00,16.7,23.3,"20:34:24",1
"19/05/26","20:50",0.0,23.5,65.4,1009.7,316.0,1.3,2.4,328.6,0.00,16.7,23.2,"20:44:56",1
"19/05/26","21:00",0.0,23.4,66.7,1010.2,336.9,1.3,1.9,335.5,0.00,16.9,23.0,"20:58:32",1
"19/05/26","21:10",0.0,23.2,66.6,1009.7,328.2,1.3,2.9,327.9,0.00,16.7,22.9,"21:05:44",1
"19/05/26","21:20",0.0,23.2,66.7,1010.0,329.7,1.6,3.3,346.6,0.00,16.7,22.7,"21:17:44",1
"19/05/26","21:30",0.0,22.8,67.2,1010.0,313.1,0.8,2.4,320.1,0.00,16.4,22.7,"21:29:36",1
"19/05/26","21:40",0.0,22.4,67.5,1010.4,300.7,1.3,2.4,308.9,0.00,16.1,22.7,"21:33:04",1
"19/05/26","21:50",0.0,22.3,69.5,1010.7,310.8,0.7,2.1,310.9,0.00,16.5,22.4,"21:40:02",1
"19/05/26","22:00",0.0,22.1,68.9,1010.7,302.3,1.1,1.7,306.1,0.00,16.2,22.4,"21:50:24",1
"19/05/26","22:10",0.0,21.6,69.7,1010.4,298.9,1.0,1.6,306.1,0.00,15.9,22.3,"22:01:36",1
"19/05/26","22:20",0.0,21.4,71.7,1010.9,312.0,1.2,1.9,331.9,0.00,16.1,22.1,"22:19:20",1
"19/05/26","22:30",0.0,21.2,73.6,1010.7,317.8,1.1,1.6,316.2,0.00,16.3,21.8,"22:21:12",1
"19/05/26","22:40",0.0,20.7,74.9,1010.9,305.1,1.0,1.3,329.6,0.00,16.1,21.8,"22:30:16",1
"19/05/26","22:50",0.0,20.6,75.7,1010.7,309.3,1.2,2.1,318.2,0.00,16.2,21.7,"22:45:44",1
"19/05/26","23:00",0.0,20.7,75.6,1010.7,311.0,1.2,2.6,334.9,0.00,16.3,21.6,"22:54:40",1
"19/05/26","23:10",0.0,20.4,75.7,1010.7,297.0,1.0,1.2,310.4,0.00,16.0,21.6,"23:02:00",1
"19/05/26","23:20",0.0,20.3,76.6,1010.9,295.1,0.8,1.6,304.2,0.00,16.1,21.5,"23:15:44",1
"19/05/26","23:30",0.0,20.4,76.7,1010.9,301.4,1.1,1.9,312.2,0.00,16.2,21.4,"23:28:48",1
"19/05/26","23:40",0.0,20.3,77.5,1010.9,294.8,0.8,1.8,321.7,0.00,16.3,21.3,"23:30:24",1
"19/05/26","23:50",0.0,20.2,77.3,1011.2,292.2,1.0,1.4,315.6,0.00,16.1,21.2,"23:40:40",1
"19/05/26","24:00",0.0,20.0,77.3,1010.9,288.1,1.0,1.8,314.4,0.00,15.9,21.2,"23:59:52",1
